[[{"header":{"parameterUnit":"m.s-1","parameterCategory":1,"la1":30.2991,"la2":30.254,"lo1":-89.0895,"lo2":-89.0444,"dy":0.0017,"dx":0.0017,"nx":28,"ny":28,"refTime":"2023-08-08T03:00:00:Z","depth":0,"parameterNumber":2,"parameterNumberName":"U-component_of_WINDS"},"data":[0,0,0,0,0,0,0,0,0,0,0,0,0,0,0,0,0,0,0,0,0,0,0,0,0,0,0,0,0,0,0,0,0,0,0,0,0,0,0,0,0,0,0,0,0,0,0,0,0,0,0,0,0,0,0,0,0,0,-0.306,-0.3059,0,-0.2945,-0.2943,-0.2942,-0.2898,-0.2899,-0.2899,-0.2899,-0.2778,-0.2775,-0.2771,0,0,0,0,0,0,0,0,0,0,0,0,0,-0.324,-0.3237,-0.3061,-0.3059,-0.3058,-0.2945,-0.2943,-0.2942,-0.2898,-0.2899,-0.2899,-0.2899,-0.2779,-0.2775,-0.2771,0,0,0,0,0,0,0,0,0,0,0,0,0,-0.3147,-0.3236,-0.3061,-0.3022,-0.3018,-0.2945,-0.2943,-0.2941,-0.2898,-0.2899,-0.2899,-0.29,-0.2781,-0.2776,-0.277,-0.2727,0,0,-0.2754,-0.2752,0,0,0,0,0,0,0,0,-0.3152,-0.3141,-0.3029,-0.3025,-0.302,-0.2937,-0.2962,-0.2869,-0.2898,-0.2943,-0.2899,-0.29,-0.283,-0.2821,-0.2798,-0.2721,-0.2716,-0.2754,-0.275,-0.2748,-0.2747,0,0,0,0,0,0,0,-0.3159,-0.3145,-0.3015,-0.3028,-0.3022,-0.301,-0.2997,-0.2945,-0.2885,-0.294,-0.2936,-0.2923,-0.2828,-0.2803,-0.2795,-0.2714,-0.2754,-0.2749,-0.2746,-0.2744,-0.2594,-0.2593,0,0,0,0,0,0,-0.3172,-0.3151,-0.3018,-0.3011,-0.3089,-0.3006,-0.2992,-0.2963,-0.2886,-0.2875,-0.2923,-0.2922,-0.2812,-0.2801,-0.279,-0.2733,-0.2748,-0.2743,-0.274,-0.2595,-0.2594,-0.2593,0,0,0,0,0,0,-0.3176,-0.3161,-0.3023,-0.308,-0.3062,-0.3002,-0.297,-0.296,-0.2936,-0.2873,-0.2862,-0.2909,-0.2812,-0.2798,-0.2743,-0.2728,-0.2741,-0.2736,-0.2596,-0.2594,-0.2593,-0.2619,0,0,0,0,0,0,-0.3182,-0.3163,-0.3146,-0.308,-0.3059,-0.2978,-0.2969,-0.2957,-0.2927,-0.2924,-0.2857,-0.2847,-0.2811,-0.2751,-0.2738,-0.2721,-0.2732,-0.2597,-0.2595,-0.2594,-0.2619,-0.2619,-0.2619,0,0,0,0,0,-0.3188,-0.3158,-0.3146,-0.313,-0.3037,-0.2978,-0.2965,-0.2926,-0.2926,-0.2908,-0.2868,-0.2849,-0.2732,-0.2746,-0.273,-0.2712,-0.2597,-0.2596,-0.2594,-0.2619,-0.2619,-0.2619,0,0,0,0,0,0,-0.3224,-0.3149,-0.3134,-0.3082,-0.3037,-0.297,-0.2947,-0.2927,-0.2881,-0.288,-0.2833,-0.2818,-0.2766,-0.2734,-0.275,-0.2665,-0.2663,-0.2658,-0.2688,-0.2687,-0.2687,-0.2695,-0.2727,0,0,0,0,0,-0.3226,-0.3184,-0.3121,-0.3081,-0.3059,-0.3007,-0.298,-0.2953,-0.2904,-0.2884,-0.284,-0.2792,-0.2744,-0.2714,-0.2667,-0.2615,-0.2598,-0.2594,-0.2594,-0.2594,-0.259,-0.2558,-0.2555,-0.2587,-0.2587,-0.2587,0,0,-0.3229,-0.3183,-0.3159,-0.3086,-0.3048,-0.3005,-0.2991,-0.2947,-0.2914,-0.2877,-0.2822,-0.2788,-0.2731,-0.2677,-0.2651,-0.2648,-0.2577,-0.2592,-0.2592,-0.2588,-0.2556,-0.2553,-0.255,-0.2586,-0.2586,-0.2586,0,0,-0.3212,-0.3174,-0.3136,-0.3098,-0.304,-0.3005,-0.2996,-0.2933,-0.2909,-0.2853,-0.2824,-0.2784,-0.2704,-0.2664,-0.2633,-0.2601,-0.258,-0.2587,-0.2585,-0.2554,-0.2551,-0.2549,-0.2536,-0.2532,-0.2583,-0.2583,-0.2583,0,-0.3223,-0.3158,-0.3118,-0.3075,-0.3043,-0.3008,-0.2968,-0.2933,-0.2863,-0.2841,-0.2839,-0.2737,-0.2696,-0.2631,-0.2623,-0.26,-0.2587,-0.2594,-0.2555,-0.2552,-0.2549,-0.2536,-0.2531,-0.2584,-0.2584,-0.2584,-0.2584,0,-0.3174,-0.3129,-0.3105,-0.3038,-0.3003,-0.2962,-0.2914,-0.2884,-0.286,-0.2826,-0.2768,-0.2719,-0.266,-0.2643,-0.262,-0.2574,-0.2574,-0.2565,-0.2562,-0.2548,-0.2535,-0.2529,-0.2586,-0.2585,-0.2585,-0.2585,0,0,-0.3177,-0.3088,-0.308,-0.3048,-0.2981,-0.2945,-0.2901,-0.2845,-0.2819,-0.2771,-0.2732,-0.2664,-0.2655,-0.262,-0.2592,-0.2565,-0.254,-0.2558,-0.2556,-0.2556,-0.2485,-0.2492,-0.2487,-0.2527,-0.2526,-0.2525,-0.2489,0,-0.3151,-0.3072,-0.3034,-0.2971,-0.2928,-0.2894,-0.2855,-0.2809,-0.2776,-0.2734,-0.2696,-0.2648,-0.264,-0.2618,-0.2591,-0.2549,-0.2525,-0.2552,-0.2489,-0.2487,-0.2503,-0.248,-0.2487,-0.2456,-0.2484,-0.2483,-0.2482,0,-0.311,-0.3062,-0.2995,-0.2932,-0.2912,-0.2879,-0.2823,-0.2783,-0.273,-0.2707,-0.2668,-0.264,-0.2592,-0.2593,-0.2524,-0.2543,-0.2515,-0.2491,-0.2489,-0.248,-0.2483,-0.247,-0.2445,-0.244,-0.2474,-0.2475,-0.2475,0,-0.3117,-0.3037,-0.2985,-0.2959,-0.2885,-0.2861,-0.2829,-0.2776,-0.2744,-0.2695,-0.2673,-0.2619,-0.2589,-0.2547,-0.2505,-0.2511,-0.244,-0.2439,-0.2418,-0.2419,-0.2404,-0.2406,-0.2373,-0.2389,-0.2389,-0.2389,-0.2389,0,-0.3091,-0.3051,-0.2987,-0.2956,-0.2909,-0.2865,-0.282,-0.2785,-0.2738,-0.2698,-0.2665,-0.2629,-0.2576,-0.2532,-0.2499,-0.2446,-0.2433,-0.2412,-0.2404,-0.2414,-0.2417,-0.2395,-0.2395,-0.2388,-0.2388,-0.2388,-0.2388,0,-0.3092,-0.3047,-0.2989,-0.2923,-0.2905,-0.2873,-0.2816,-0.2783,-0.2748,-0.2697,-0.2683,-0.2627,-0.2573,-0.2528,-0.2457,-0.2435,-0.238,-0.237,-0.2398,-0.2393,-0.2375,-0.2377,-0.2326,-0.2316,-0.234,-0.234,-0.234,0,-0.3078,-0.3046,-0.2976,-0.2947,-0.2915,-0.2869,-0.2835,-0.279,-0.2757,-0.2693,-0.2667,-0.2612,-0.2564,-0.248,-0.2433,-0.2378,-0.2366,-0.2352,-0.2358,-0.2369,-0.2364,-0.2366,-0.2362,-0.2352,-0.2352,-0.2352,-0.2352,0,-0.3057,-0.3036,-0.299,-0.2935,-0.2896,-0.2851,-0.2804,-0.2782,-0.2728,-0.2692,-0.2637,-0.2601,-0.2528,-0.2473,-0.2413,-0.2378,-0.2355,-0.235,-0.2343,-0.2352,-0.2369,-0.2358,-0.2396,-0.2352,-0.2352,-0.2352,-0.2352,-0.2352,-0.3048,-0.3017,-0.2963,-0.2911,-0.2872,-0.2829,-0.2795,-0.2754,-0.2708,-0.2645,-0.2622,-0.2565,-0.2511,-0.2428,-0.2393,-0.2348,-0.2344,-0.2333,-0.233,-0.2328,-0.2329,-0.2378,-0.2337,-0.2337,-0.2337,-0.2337,-0.2337,0,-0.3024,-0.2987,-0.294,-0.2876,-0.2836,-0.2818,-0.2766,-0.2732,-0.2683,-0.2635,-0.2589,-0.2524,-0.247,-0.2418,-0.2361,-0.2334,-0.2322,-0.232,-0.2321,-0.2313,-0.2336,-0.2348,-0.2331,-0.2331,-0.2331,-0.2331,-0.2331,-0.2331,-0.3007,-0.2954,-0.2926,-0.2852,-0.2815,-0.2759,-0.273,-0.269,-0.2651,-0.2581,-0.2535,-0.2502,-0.2451,-0.239,-0.2339,-0.2325,-0.2304,-0.2305,-0.2288,-0.231,-0.2312,-0.2313,-0.2323,-0.2302,-0.2302,-0.2269,-0.2268,-0.2268]},{"header":{"parameterUnit":"m.s-1","parameterCategory":1,"la1":30.2991,"la2":30.254,"lo1":-89.0895,"lo2":-89.0444,"dy":0.0017,"dx":0.0017,"nx":28,"ny":28,"refTime":"2023-08-08T03:00:00:Z","depth":0,"parameterNumber":3,"parameterNumberName":"V-component_of_WINDS"},"data":[0,0,0,0,0,0,0,0,0,0,0,0,0,0,0,0,0,0,0,0,0,0,0,0,0,0,0,0,0,0,0,0,0,0,0,0,0,0,0,0,0,0,0,0,0,0,0,0,0,0,0,0,0,0,0,0,0,0,5.4178,5.4178,0,5.4211,5.4212,5.4212,5.4207,5.4207,5.4206,5.4206,5.4235,5.4236,5.4238,0,0,0,0,0,0,0,0,0,0,0,0,0,5.4106,5.4108,5.4178,5.4178,5.4179,5.4211,5.4212,5.4212,5.4207,5.4207,5.4206,5.4206,5.4235,5.4236,5.4238,0,0,0,0,0,0,0,0,0,0,0,0,0,5.4138,5.4108,5.4178,5.4181,5.4181,5.4211,5.4212,5.4212,5.4208,5.4207,5.4206,5.4205,5.4234,5.4236,5.4238,5.4266,0,0,5.4244,5.4245,0,0,0,0,0,0,0,0,5.4136,5.4141,5.418,5.418,5.4181,5.4205,5.4197,5.423,5.4208,5.4197,5.4206,5.4205,5.4225,5.4228,5.4236,5.4268,5.4269,5.4244,5.4245,5.4246,5.4247,0,0,0,0,0,0,0,5.4134,5.4139,5.4191,5.418,5.4181,5.4179,5.4182,5.4204,5.4215,5.4198,5.4198,5.4202,5.4225,5.4234,5.4236,5.4269,5.4244,5.4246,5.4247,5.4248,5.4327,5.4328,0,0,0,0,0,0,5.4132,5.4138,5.419,5.4192,5.4157,5.4181,5.4185,5.4198,5.4215,5.4217,5.4203,5.4202,5.4231,5.4234,5.4237,5.4272,5.4246,5.4248,5.4249,5.4326,5.4327,5.4328,0,0,0,0,0,0,5.413,5.4137,5.4189,5.4165,5.4171,5.4183,5.4197,5.4199,5.4207,5.4219,5.422,5.421,5.423,5.4235,5.426,5.4273,5.4249,5.425,5.4325,5.4326,5.4328,5.4342,0,0,0,0,0,0,5.4128,5.4136,5.4148,5.4165,5.4173,5.4212,5.4198,5.42,5.4211,5.421,5.4226,5.4227,5.423,5.4257,5.4262,5.4276,5.4252,5.4324,5.4325,5.4327,5.4341,5.4344,5.4347,0,0,0,0,0,5.4126,5.4149,5.4148,5.4155,5.4188,5.4212,5.4216,5.4221,5.4212,5.4224,5.4231,5.4227,5.4271,5.4259,5.4265,5.4279,5.4323,5.4325,5.4327,5.4339,5.4343,5.4347,0,0,0,0,0,0,5.413,5.4151,5.4151,5.4181,5.4195,5.4212,5.4226,5.4225,5.424,5.4239,5.4242,5.4245,5.4271,5.4277,5.4264,5.4308,5.4296,5.4299,5.4303,5.4307,5.431,5.4308,5.4254,0,0,0,0,0,5.4136,5.4155,5.4172,5.4196,5.4204,5.4214,5.4225,5.4227,5.4241,5.4247,5.4256,5.4269,5.4286,5.4297,5.4313,5.4342,5.4345,5.4354,5.4358,5.436,5.4363,5.4379,5.4384,5.4335,5.4335,5.4335,0,0,5.4145,5.4159,5.4171,5.4198,5.4209,5.4229,5.4219,5.4239,5.4254,5.4249,5.4274,5.4282,5.4296,5.4323,5.4336,5.433,5.4377,5.4363,5.4365,5.4366,5.4382,5.4387,5.4391,5.4337,5.4336,5.4336,0,0,5.4173,5.4185,5.4208,5.422,5.4239,5.4245,5.4251,5.4268,5.4273,5.4299,5.4297,5.4313,5.4342,5.4353,5.4362,5.4396,5.4392,5.4401,5.4417,5.4433,5.4437,5.444,5.4453,5.4457,5.4403,5.4403,5.4404,0,5.4181,5.4212,5.4219,5.4241,5.4253,5.4253,5.4275,5.4286,5.4308,5.4316,5.4309,5.4347,5.4356,5.4387,5.4395,5.4403,5.4409,5.4399,5.4436,5.444,5.4443,5.4455,5.446,5.4404,5.4404,5.4404,5.4404,0,5.4223,5.4244,5.426,5.4284,5.4298,5.432,5.4329,5.4342,5.4344,5.4351,5.4377,5.4389,5.4408,5.4415,5.4416,5.4446,5.4442,5.4436,5.4423,5.4449,5.446,5.4464,5.4406,5.4405,5.4405,5.4405,0,0,5.4253,5.4282,5.4288,5.43,5.4321,5.4337,5.4359,5.438,5.4391,5.4406,5.4424,5.445,5.4445,5.4455,5.4457,5.4472,5.4499,5.4464,5.4464,5.447,5.4533,5.4538,5.4543,5.4497,5.4497,5.4498,5.4532,0,5.4283,5.4324,5.4332,5.4367,5.4387,5.4388,5.4407,5.4421,5.4429,5.4446,5.4453,5.4472,5.4464,5.447,5.4484,5.4492,5.4511,5.449,5.4513,5.4514,5.451,5.4549,5.4554,5.4585,5.4536,5.4537,5.4538,0,5.4323,5.4343,5.4381,5.4401,5.441,5.4427,5.4448,5.4464,5.448,5.4485,5.4498,5.4499,5.4521,5.4508,5.4538,5.4523,5.4533,5.4538,5.454,5.4542,5.4527,5.4552,5.4595,5.46,5.4544,5.4544,5.4543,0,5.4342,5.4378,5.4406,5.4415,5.4439,5.4452,5.4462,5.4478,5.449,5.4507,5.4516,5.4534,5.4544,5.4558,5.4564,5.4554,5.4594,5.4581,5.4598,5.4598,5.4606,5.4606,5.4651,5.4612,5.4612,5.4612,5.4612,0,5.4375,5.4399,5.4415,5.4432,5.4458,5.4466,5.4491,5.4501,5.4515,5.4534,5.4534,5.4551,5.4557,5.4575,5.4579,5.4604,5.4608,5.4612,5.4613,5.4612,5.4612,5.4618,5.4616,5.4613,5.4613,5.4613,5.4612,0,5.4401,5.4413,5.4443,5.4465,5.4471,5.4489,5.4506,5.4522,5.4531,5.4554,5.4559,5.4571,5.4592,5.46,5.4624,5.4627,5.4656,5.4654,5.4651,5.4651,5.4668,5.4666,5.472,5.4727,5.4683,5.4683,5.4683,0,5.4421,5.444,5.4464,5.4478,5.4489,5.451,5.4524,5.4532,5.4546,5.4567,5.4581,5.4602,5.462,5.4653,5.4663,5.4681,5.4681,5.4698,5.4683,5.4683,5.4682,5.4681,5.4683,5.4701,5.4701,5.4702,5.4702,0,5.4456,5.4462,5.4483,5.4506,5.4523,5.4541,5.4559,5.4569,5.458,5.4596,5.4618,5.4632,5.4659,5.4679,5.4699,5.4708,5.4707,5.4707,5.4712,5.4711,5.4709,5.4711,5.4659,5.4705,5.4705,5.4705,5.4705,5.4704,5.448,5.4498,5.4518,5.4542,5.4556,5.4573,5.459,5.4602,5.4621,5.4645,5.4648,5.4673,5.4689,5.4716,5.4726,5.4744,5.4739,5.4746,5.4748,5.4749,5.4751,5.4706,5.4747,5.4747,5.4747,5.4747,5.4747,0,5.4516,5.453,5.4552,5.4578,5.4597,5.4596,5.4616,5.4631,5.4653,5.467,5.4688,5.4714,5.4735,5.4747,5.4767,5.478,5.478,5.4785,5.4784,5.4786,5.4754,5.4748,5.4785,5.4785,5.4785,5.4785,5.4785,5.4785,5.4537,5.4567,5.4575,5.4612,5.4625,5.4651,5.4663,5.4678,5.4691,5.4721,5.474,5.4748,5.4763,5.4785,5.4804,5.4807,5.4814,5.482,5.4823,5.4792,5.4788,5.4785,5.4779,5.4822,5.4822,5.4853,5.4854,5.4854]}]]